{"data":{"norad_id":43254,"intl_designator":"2018-030F","name":"IRIDIUM 146","alt_names":[],"object_type":"PAYLOAD","status":"ACTIVE","operator":null,"country":"US","launch_date":"2018-03-30","launch_site_code":"AFWTR","launch_vehicle":null,"mission":null,"orbit_class":"UNKNOWN","rcs_meters":null,"size_class":null,"mass_kg":null,"dimensions":null,"purposes":["comms"],"wikipedia_slug":null,"has_3d_model":false,"image_url":null,"decayed_at":null,"tle_current":{"epoch":"2026-05-25T03:35:51.364320Z","epoch_age_seconds":72586,"freshness":"FRESH","line1":"1 43254U 18030F   26145.14990005  .00000128  00000+0  38704-4 0  9992","line2":"2 43254  86.3939 300.0534 0002048  91.4518 268.6912 14.34218132426831","mean_motion":14.34218132,"eccentricity":0.0002048,"inclination_deg":86.3939,"raan_deg":300.0534,"arg_perigee_deg":91.4518,"mean_anomaly_deg":268.6912,"bstar":3.8704e-5,"rev_number":42683,"period_min":100.40313728233,"perigee_km":776.20037530385,"apogee_km":779.13139216503,"semimajor_km":7155.8028837344,"source":"CELESTRAK","updated_at":"2026-05-25T13:38:14.808437Z"}}}